DAL2091 KMSP-KMSN

Flight info

Callsign DAL2091
Flight time 0h 36m
Altitude 25000
Route COULT7 DLL
Aircraft A320/M-SDE3FGHIRWY/LB1

Departure

Time 2026-04-24 15:04
Airport Minneapolis–Saint Paul International Airport / Wold–Chamberlain Field (KMSP)

Arrival

Time 2026-04-24 15:41
Airport Dane County Regional Truax Field (KMSN)
Time Latitude Longitude Altitude Speed Heading
2026-04-24 14:47 44.88396 -93.21670 826 ft 0 kts 109°
2026-04-24 14:57 44.88401 -93.21693 825 ft 3 kts 115°
2026-04-24 14:58 44.88411 -93.21719 822 ft 4 kts 126°
2026-04-24 14:58 44.88429 -93.21744 823 ft 4 kts 159°
2026-04-24 14:58 44.88451 -93.21745 824 ft 4 kts 219°
2026-04-24 14:58 44.88456 -93.21741 822 ft 0 kts 225°
2026-04-24 15:00 44.88447 -93.21752 824 ft 9 kts 225°
2026-04-24 15:00 44.88372 -93.21858 824 ft 16 kts 225°
2026-04-24 15:00 44.88295 -93.21937 825 ft 12 kts 190°
2026-04-24 15:01 44.88228 -93.21847 822 ft 21 kts 122°
2026-04-24 15:01 44.88132 -93.21625 821 ft 28 kts 121°
2026-04-24 15:01 44.88031 -93.21394 824 ft 27 kts 122°
2026-04-24 15:01 44.87926 -93.21150 823 ft 29 kts 121°
2026-04-24 15:02 44.87825 -93.20916 826 ft 27 kts 121°
2026-04-24 15:02 44.87732 -93.20702 826 ft 24 kts 122°
2026-04-24 15:02 44.87647 -93.20506 824 ft 23 kts 121°
2026-04-24 15:02 44.87568 -93.20324 823 ft 21 kts 121°
2026-04-24 15:03 44.87519 -93.20212 826 ft 20 kts 121°
2026-04-24 15:03 44.87434 -93.20073 827 ft 10 kts 183°
2026-04-24 15:03 44.87384 -93.20164 827 ft 22 kts 274°
2026-04-24 15:03 44.87570 -93.20618 825 ft 88 kts 302°
2026-04-24 15:04 44.88000 -93.21610 824 ft 144 kts 302°
2026-04-24 15:04 44.88484 -93.22888 1348 ft 149 kts 284°
2026-04-24 15:04 44.88265 -93.24269 2093 ft 154 kts 234°
2026-04-24 15:04 44.87287 -93.24990 2656 ft 171 kts 185°
2026-04-24 15:05 44.86100 -93.24487 2983 ft 191 kts 137°
2026-04-24 15:05 44.85372 -93.22900 3443 ft 199 kts 100°
2026-04-24 15:05 44.85029 -93.20966 3916 ft 211 kts 102°
2026-04-24 15:05 44.84735 -93.19596 4177 ft 223 kts 103°
2026-04-24 15:06 44.84076 -93.16629 4653 ft 255 kts 103°
2026-04-24 15:06 44.83738 -93.14995 5168 ft 259 kts 102°
2026-04-24 15:06 44.83253 -93.12516 5925 ft 268 kts 103°
2026-04-24 15:06 44.82730 -93.09950 6662 ft 277 kts 105°
2026-04-24 15:07 44.82172 -93.07313 7414 ft 284 kts 106°
2026-04-24 15:07 44.81588 -93.04624 8214 ft 290 kts 106°
2026-04-24 15:07 44.81020 -93.01883 9052 ft 293 kts 105°
2026-04-24 15:07 44.80479 -92.99098 9900 ft 296 kts 105°
2026-04-24 15:08 44.79947 -92.96270 10390 ft 312 kts 105°
2026-04-24 15:08 44.79345 -92.93195 10653 ft 336 kts 106°
2026-04-24 15:08 44.78680 -92.89912 10877 ft 360 kts 107°
2026-04-24 15:08 44.77973 -92.86470 11400 ft 370 kts 107°
2026-04-24 15:09 44.77249 -92.82968 12116 ft 375 kts 107°
2026-04-24 15:09 44.76519 -92.79443 12853 ft 377 kts 107°
2026-04-24 15:09 44.75781 -92.75874 13613 ft 381 kts 108°
2026-04-24 15:09 44.75039 -92.72286 14277 ft 384 kts 108°
2026-04-24 15:10 44.74289 -92.68670 14936 ft 386 kts 108°
2026-04-24 15:10 44.73537 -92.65031 15604 ft 389 kts 108°
2026-04-24 15:10 44.72781 -92.61370 16272 ft 391 kts 108°
2026-04-24 15:10 44.72014 -92.57683 16933 ft 393 kts 109°
2026-04-24 15:11 44.71236 -92.53972 17580 ft 396 kts 109°
2026-04-24 15:11 44.70341 -92.50305 18208 ft 397 kts 116°
2026-04-24 15:11 44.69031 -92.46895 18758 ft 397 kts 126°
2026-04-24 15:11 44.67428 -92.43727 19289 ft 399 kts 129°
2026-04-24 15:12 44.65797 -92.40546 19813 ft 403 kts 129°
2026-04-24 15:12 44.62484 -92.34096 20845 ft 411 kts 129°
2026-04-24 15:12 44.60801 -92.30828 21336 ft 415 kts 129°
2026-04-24 15:13 44.59100 -92.27533 21795 ft 419 kts 129°
2026-04-24 15:13 44.57380 -92.24207 22273 ft 422 kts 129°
2026-04-24 15:13 44.55649 -92.20855 22723 ft 426 kts 129°
2026-04-24 15:13 44.53929 -92.17520 23154 ft 430 kts 129°
2026-04-24 15:14 44.52168 -92.14106 23558 ft 434 kts 129°
2026-04-24 15:14 44.50392 -92.10669 23930 ft 437 kts 129°
2026-04-24 15:14 44.48605 -92.07216 24318 ft 439 kts 130°
2026-04-24 15:14 44.46810 -92.03746 24689 ft 441 kts 130°
2026-04-24 15:15 44.45008 -92.00267 24813 ft 442 kts 130°
2026-04-24 15:15 44.43188 -91.96768 24840 ft 445 kts 130°
2026-04-24 15:15 44.41366 -91.93279 24838 ft 445 kts 130°
2026-04-24 15:15 44.39535 -91.89774 24812 ft 445 kts 130°
2026-04-24 15:16 44.37714 -91.86278 24836 ft 445 kts 129°
2026-04-24 15:16 44.36121 -91.82556 24833 ft 448 kts 122°
2026-04-24 15:16 44.34676 -91.78697 24831 ft 448 kts 122°
2026-04-24 15:16 44.33214 -91.74824 24828 ft 448 kts 122°
2026-04-24 15:17 44.31753 -91.70984 24829 ft 448 kts 122°
2026-04-24 15:17 44.30286 -91.67150 24825 ft 448 kts 122°
2026-04-24 15:17 44.28821 -91.63326 24843 ft 448 kts 122°
2026-04-24 15:17 44.27369 -91.59535 24842 ft 448 kts 122°
2026-04-24 15:18 44.25903 -91.55704 24835 ft 448 kts 122°
2026-04-24 15:18 44.24437 -91.51865 24811 ft 447 kts 123°
2026-04-24 15:18 44.22974 -91.48037 24848 ft 445 kts 123°
2026-04-24 15:18 44.21518 -91.44233 24843 ft 444 kts 124°
2026-04-24 15:19 44.20063 -91.40445 24847 ft 443 kts 123°
2026-04-24 15:19 44.18610 -91.36666 24841 ft 442 kts 124°
2026-04-24 15:19 44.17159 -91.32894 24838 ft 441 kts 124°
2026-04-24 15:19 44.15705 -91.29122 24836 ft 441 kts 124°
2026-04-24 15:20 44.14252 -91.25365 24836 ft 441 kts 124°
2026-04-24 15:20 44.12798 -91.21613 24832 ft 440 kts 124°
2026-04-24 15:20 44.11343 -91.17865 24831 ft 440 kts 124°
2026-04-24 15:20 44.09883 -91.14114 24792 ft 440 kts 124°
2026-04-24 15:21 44.08431 -91.10380 24826 ft 438 kts 125°
2026-04-24 15:21 44.06986 -91.06665 24846 ft 436 kts 125°
2026-04-24 15:21 44.05569 -91.03017 24849 ft 434 kts 125°
2026-04-24 15:21 44.04135 -90.99328 24849 ft 433 kts 125°
2026-04-24 15:22 44.02700 -90.95652 24847 ft 432 kts 125°
2026-04-24 15:22 44.01265 -90.91984 24817 ft 432 kts 125°
2026-04-24 15:22 43.99825 -90.88311 24814 ft 432 kts 125°
2026-04-24 15:23 43.96953 -90.81012 24506 ft 429 kts 125°
2026-04-24 15:23 43.94109 -90.73778 24003 ft 424 kts 126°
2026-04-24 15:23 43.92702 -90.70203 23774 ft 421 kts 125°
2026-04-24 15:24 43.88519 -90.59592 23022 ft 415 kts 125°
2026-04-24 15:25 43.86212 -90.53771 22577 ft 413 kts 125°
2026-04-24 15:25 43.83010 -90.45705 21543 ft 404 kts 125°
2026-04-24 15:26 43.78998 -90.35641 20036 ft 392 kts 124°
2026-04-24 15:27 43.75087 -90.25845 18640 ft 383 kts 124°
2026-04-24 15:27 43.71287 -90.16364 17375 ft 371 kts 124°
2026-04-24 15:28 43.66329 -90.04081 15434 ft 362 kts 123°
2026-04-24 15:29 43.63910 -89.98099 14452 ft 349 kts 123°
2026-04-24 15:30 43.60456 -89.89578 12881 ft 337 kts 123°
2026-04-24 15:31 43.55994 -89.78600 10981 ft 313 kts 122°
2026-04-24 15:32 43.52034 -89.68542 10361 ft 297 kts 120°
2026-04-24 15:33 43.48151 -89.58446 9298 ft 299 kts 120°
2026-04-24 15:33 43.45454 -89.51491 8479 ft 258 kts 120°
2026-04-24 15:34 43.43771 -89.47177 7530 ft 254 kts 120°
2026-04-24 15:35 43.41287 -89.40838 6307 ft 242 kts 118°
2026-04-24 15:35 43.39783 -89.36991 5898 ft 220 kts 118°
2026-04-24 15:35 43.38927 -89.35286 5511 ft 214 kts 136°
2026-04-24 15:36 43.37777 -89.34058 5425 ft 210 kts 153°
2026-04-24 15:36 43.35023 -89.33201 4835 ft 200 kts 184°
2026-04-24 15:36 43.33642 -89.33236 4559 ft 198 kts 186°
2026-04-24 15:37 43.32269 -89.33297 4289 ft 197 kts 186°
2026-04-24 15:37 43.30899 -89.33361 4019 ft 196 kts 185°
2026-04-24 15:37 43.29537 -89.33424 3766 ft 196 kts 186°
2026-04-24 15:37 43.28175 -89.33487 3508 ft 195 kts 186°
2026-04-24 15:38 43.26829 -89.33550 3249 ft 191 kts 185°
2026-04-24 15:38 43.25536 -89.33608 3013 ft 181 kts 186°
2026-04-24 15:38 43.24313 -89.33665 2773 ft 175 kts 186°
2026-04-24 15:38 43.23117 -89.33721 2541 ft 168 kts 186°
2026-04-24 15:39 43.21976 -89.33773 2342 ft 160 kts 186°
2026-04-24 15:39 43.20878 -89.33825 2120 ft 156 kts 186°
2026-04-24 15:39 43.19799 -89.33875 1901 ft 155 kts 186°
2026-04-24 15:39 43.18725 -89.33925 1698 ft 155 kts 186°
2026-04-24 15:40 43.17666 -89.33974 1478 ft 151 kts 184°
2026-04-24 15:40 43.16628 -89.34022 1281 ft 147 kts 183°
2026-04-24 15:40 43.15610 -89.34070 1059 ft 145 kts 184°
2026-04-24 15:40 43.14610 -89.34117 885 ft 142 kts 183°
2026-04-24 15:41 43.13755 -89.34162 868 ft 76 kts 181°
2026-04-24 15:41 43.13437 -89.34175 866 ft 20 kts 195°
2026-04-24 15:41 43.13420 -89.34287 859 ft 9 kts 296°
2026-04-24 15:41 43.13424 -89.34299 856 ft 0 kts 298°
2026-04-24 15:42 43.13428 -89.34303 857 ft 4 kts 312°
2026-04-24 15:42 43.13486 -89.34318 861 ft 9 kts
2026-04-24 15:42 43.13546 -89.34314 856 ft 9 kts
2026-04-24 15:42 43.13642 -89.34315 860 ft 13 kts 353°
2026-04-24 15:43 43.13699 -89.34376 856 ft 8 kts 339°
2026-04-24 15:43 43.13754 -89.34392 859 ft 11 kts 345°
2026-04-24 15:43 43.13789 -89.34453 867 ft 11 kts 264°
2026-04-24 15:43 43.13784 -89.34499 867 ft 3 kts 261°
2026-04-24 15:44 43.13783 -89.34503 867 ft 0 kts 261°